Location: Colorado Springs
(38.8340°N, 104.8210°W)
Time: 10:54:06
(UTC-07:00)

Vanguard 3 - Pass Details

Date: 31 October 2017
Orbit: 509 x 3263 km, 33.4° (Epoch: 17 November)

Event Time Altitude Azimuth Distance (km) Brightness Sun altitude
Rises 05:30:49 0° 273° (W) 7,079 - -22.8°
Reaches altitude 10° 05:35:59 10° 271° (W) 5,842 - -21.8°
Exits shadow 05:42:20 26° 266° (W) 4,270 10.1 -20.6°
Maximum altitude 05:52:29 63° 197° (SSW) 2,301 9.3 -18.6°
Drops below altitude 10° 06:02:02 10° 118° (ESE) 3,554 11.5 -16.8°
Sets 06:04:25 0° 115° (ESE) 4,242 12.2 -16.3°
